�������l�o���
Date,Time,MP-1(��Sv/h),MP-2(��Sv/h),MP-3(��Sv/h),MP-4(��Sv/h),MP-5(��Sv/h),MP-6(��Sv/h),MP-7(��Sv/h),MP-8(��Sv/h),����,����(m/s),���J
2018/03/08,00:00,0.844,1.424,0.882,1.650,1.134,0.471,0.843,0.812,�쐼,1.7,��
2018/03/08,00:10,0.844,1.424,0.881,1.650,1.135,0.471,0.845,0.814,���쐼,1.2,��
2018/03/08,00:20,0.845,1.422,0.883,1.653,1.135,0.473,0.844,0.812,�쐼,0.9,��
2018/03/08,00:30,0.845,1.424,0.883,1.649,1.136,0.472,0.844,0.814,�쐼,1.1,��
2018/03/08,00:40,0.845,1.426,0.882,1.651,1.135,0.472,0.846,0.813,�쐼,0.8,��
2018/03/08,00:50,0.845,1.423,0.881,1.651,1.135,0.473,0.842,0.814,�쐼,1.2,��
2018/03/08,01:00,0.844,1.422,0.882,1.650,1.135,0.474,0.844,0.815,���쐼,0.6,�L
2018/03/08,01:10,0.846,1.424,0.883,1.653,1.134,0.473,0.843,0.812,�쐼,0.9,�L
2018/03/08,01:20,0.843,1.423,0.882,1.650,1.136,0.471,0.843,0.813,�쐼,0.8,��
2018/03/08,01:30,0.844,1.425,0.882,1.651,1.138,0.470,0.845,0.815,��,1.4,��
2018/03/08,01:40,0.843,1.424,0.883,1.651,1.136,0.473,0.844,0.813,�쐼,0.9,��
2018/03/08,01:50,0.846,1.423,0.883,1.649,1.135,0.472,0.844,0.813,��,0.9,�L
2018/03/08,02:00,0.845,1.425,0.882,1.652,1.135,0.473,0.844,0.814,-,CALM,�L
2018/03/08,02:10,0.844,1.423,0.883,1.652,1.136,0.473,0.844,0.812,��쐼,0.6,�L
2018/03/08,02:20,0.844,1.421,0.883,1.652,1.137,0.473,0.844,0.812,��,1.5,�L
2018/03/08,02:30,0.845,1.424,0.883,1.653,1.136,0.472,0.845,0.813,��쐼,1.7,�L
2018/03/08,02:40,0.844,1.425,0.882,1.651,1.136,0.472,0.847,0.814,�쐼,0.9,��
2018/03/08,02:50,0.845,1.423,0.882,1.653,1.136,0.474,0.845,0.815,���쐼,1.1,��
2018/03/08,03:00,0.843,1.423,0.884,1.652,1.137,0.473,0.845,0.814,��,1.4,��
2018/03/08,03:10,0.844,1.423,0.884,1.650,1.139,0.472,0.843,0.814,��,1.2,��
2018/03/08,03:20,0.845,1.426,0.884,1.653,1.135,0.473,0.846,0.813,��,2.0,�L
2018/03/08,03:30,0.843,1.424,0.882,1.652,1.138,0.474,0.845,0.814,��,0.6,�L
2018/03/08,03:40,0.845,1.426,0.882,1.651,1.134,0.474,0.846,0.815,��,1.1,�L
2018/03/08,03:50,0.844,1.425,0.884,1.650,1.136,0.473,0.845,0.815,��,1.2,�L
2018/03/08,04:00,0.844,1.424,0.883,1.652,1.136,0.474,0.846,0.815,�k�k��,1.2,�L
2018/03/08,04:10,0.847,1.424,0.883,1.654,1.136,0.473,0.846,0.813,�k��,1.4,�L
2018/03/08,04:20,0.847,1.422,0.882,1.650,1.136,0.474,0.846,0.815,�k�k��,1.2,�L
2018/03/08,04:30,0.846,1.423,0.884,1.650,1.135,0.473,0.848,0.814,�k,2.0,�L
2018/03/08,04:40,0.844,1.424,0.886,1.652,1.136,0.472,0.845,0.814,�k,2.2,�L
2018/03/08,04:50,0.846,1.424,0.883,1.653,1.137,0.474,0.847,0.816,�k�k��,2.3,��
2018/03/08,05:00,0.844,1.424,0.883,1.651,1.137,0.472,0.843,0.815,�k�k��,2.3,��
2018/03/08,05:10,0.844,1.421,0.884,1.652,1.135,0.474,0.845,0.816,�k��,2.9,��
2018/03/08,05:20,0.844,1.424,0.883,1.650,1.135,0.473,0.846,0.816,�k�k��,3.3,��
2018/03/08,05:30,0.845,1.424,0.884,1.652,1.136,0.473,0.846,0.814,�k��,3.3,��
2018/03/08,05:40,0.844,1.424,0.883,1.651,1.136,0.473,0.844,0.814,�k��,3.2,��
2018/03/08,05:50,0.844,1.423,0.883,1.651,1.135,0.473,0.844,0.815,�k��,2.9,��
2018/03/08,06:00,0.845,1.424,0.884,1.653,1.135,0.471,0.847,0.813,�k��,3.4,��
2018/03/08,06:10,0.844,1.424,0.882,1.653,1.132,0.472,0.846,0.813,�k��,3.5,��
2018/03/08,06:20,0.844,1.424,0.884,1.649,1.135,0.473,0.846,0.814,�k��,3.7,��
2018/03/08,06:30,0.845,1.425,0.882,1.652,1.134,0.474,0.845,0.815,�k�k��,4.0,��
2018/03/08,06:40,0.843,1.423,0.884,1.655,1.134,0.473,0.847,0.815,�k�k��,4.2,�L
2018/03/08,06:50,0.843,1.424,0.885,1.655,1.135,0.475,0.846,0.815,�k�k��,4.0,�L
2018/03/08,07:00,0.845,1.424,0.883,1.653,1.136,0.473,0.846,0.815,�k�k��,4.0,�L
2018/03/08,07:10,0.845,1.424,0.881,1.652,1.134,0.474,0.847,0.816,�k��,3.6,�L
2018/03/08,07:20,0.847,1.422,0.884,1.651,1.133,0.472,0.845,0.815,�k��,4.2,�L
2018/03/08,07:30,0.848,1.423,0.882,1.653,1.134,0.473,0.845,0.814,�k��,4.9,�L
2018/03/08,07:40,0.846,1.424,0.882,1.654,1.136,0.472,0.848,0.815,�k��,5.3,�L
2018/03/08,07:50,0.848,1.421,0.881,1.652,1.135,0.474,0.845,0.814,�k��,5.5,�L
2018/03/08,08:00,0.846,1.420,0.882,1.650,1.135,0.473,0.847,0.815,�k��,5.3,�L
2018/03/08,08:10,0.844,1.422,0.885,1.651,1.135,0.474,0.845,0.815,�k��,5.1,�L
2018/03/08,08:20,0.845,1.420,0.883,1.651,1.133,0.474,0.847,0.815,�k��,3.8,�L
2018/03/08,08:30,0.845,1.421,0.882,1.652,1.134,0.474,0.847,0.814,�k�k��,4.5,�L
2018/03/08,08:40,0.845,1.420,0.883,1.649,1.134,0.474,0.847,0.815,�k�k��,4.8,�L
2018/03/08,08:50,0.847,1.421,0.880,1.651,1.135,0.474,0.846,0.815,�k��,4.5,�L
2018/03/08,09:00,0.845,1.421,0.882,1.654,1.136,0.473,0.845,0.814,�k��,4.0,�L
2018/03/08,09:10,0.845,1.421,0.882,1.652,1.132,0.473,0.847,0.814,�k�k��,4.5,�L
2018/03/08,09:20,0.845,1.423,0.884,1.653,1.135,0.475,0.846,0.813,�k��,4.3,�L
2018/03/08,09:30,0.846,1.422,0.883,1.652,1.135,0.475,0.846,0.814,�k��,3.0,�L
2018/03/08,09:40,0.845,1.420,0.883,1.651,1.135,0.475,0.849,0.814,�k��,4.3,��
2018/03/08,09:50,0.847,1.424,0.883,1.653,1.134,0.473,0.848,0.816,�k��,3.6,��
2018/03/08,10:00,0.846,1.419,0.883,1.653,1.135,0.473,0.849,0.815,�k��,4.5,��
2018/03/08,10:10,0.847,1.423,0.883,1.651,1.135,0.475,0.847,0.814,�k�k��,4.0,��
2018/03/08,10:20,0.846,1.425,0.881,1.653,1.134,0.475,0.846,0.816,�k�k��,4.1,��
2018/03/08,10:30,0.843,1.427,0.886,1.650,1.136,0.473,0.848,0.815,�k��,4.1,��
2018/03/08,10:40,0.847,1.424,0.882,1.652,1.131,0.476,0.847,0.815,�k��,3.2,��
2018/03/08,10:50,0.845,1.425,0.884,1.653,1.136,0.478,0.846,0.813,�k��,3.1,��
2018/03/08,11:00,0.848,1.422,0.883,1.653,1.134,0.475,0.845,0.815,�k��,2.5,�L
2018/03/08,11:10,0.846,1.421,0.884,1.652,1.133,0.474,0.848,0.814,�k��,2.9,�L
2018/03/08,11:20,0.847,1.423,0.882,1.653,1.134,0.474,0.845,0.815,�k��,2.6,�L
2018/03/08,11:30,0.847,1.415,0.883,1.653,1.135,0.475,0.848,0.816,�k�k��,2.3,�L
2018/03/08,11:40,0.848,1.416,0.885,1.654,1.137,0.475,0.846,0.817,�k,2.3,�L
2018/03/08,11:50,0.848,1.414,0.884,1.654,1.136,0.474,0.849,0.816,�k,3.0,�L
2018/03/08,12:00,0.848,1.413,0.884,1.651,1.137,0.474,0.848,0.814,�k�k��,2.5,�L
2018/03/08,12:10,0.849,1.412,0.886,1.654,1.136,0.474,0.849,0.815,�k�k��,2.8,�L
2018/03/08,12:20,0.848,1.420,0.886,1.654,1.137,0.475,0.849,0.815,�k,2.6,�L
2018/03/08,12:30,0.848,1.418,0.886,1.655,1.138,0.475,0.849,0.817,�k,2.0,�L
2018/03/08,12:40,0.849,1.420,0.886,1.653,1.135,0.476,0.848,0.816,�k,2.0,�L
2018/03/08,12:50,0.850,1.424,0.885,1.656,1.139,0.477,0.847,0.816,�k�k��,2.5,�L
2018/03/08,13:00,0.846,1.421,0.885,1.656,1.133,0.477,0.847,0.815,�k�k��,2.0,�L
2018/03/08,13:10,0.849,1.422,0.885,1.648,1.137,0.475,0.845,0.815,�k,2.3,�L
2018/03/08,13:20,0.848,1.417,0.883,1.651,1.129,0.477,0.846,0.814,�k,3.4,�L
2018/03/08,13:30,0.844,1.418,0.885,1.650,1.134,0.476,0.844,0.814,�k,3.6,�L
2018/03/08,13:40,0.848,1.416,0.881,1.649,1.134,0.477,0.846,0.814,�k,3.9,�L
2018/03/08,13:50,0.847,1.414,0.882,1.651,1.132,0.474,0.847,0.814,�k�k��,4.2,�L
2018/03/08,14:00,0.846,1.415,0.881,1.648,1.133,0.475,0.846,0.814,�k�k��,3.6,�L
2018/03/08,14:10,0.845,1.415,0.883,1.650,1.130,0.475,0.847,0.815,�k�k��,2.8,�L
2018/03/08,14:20,0.845,1.413,0.879,1.647,1.126,0.476,0.845,0.814,�k�k��,2.9,�L
2018/03/08,14:30,0.844,1.410,0.880,1.644,1.125,0.474,0.845,0.813,�k�k��,2.9,�L
2018/03/08,14:40,0.844,1.409,0.879,1.644,1.126,0.476,0.845,0.814,�k�k��,3.9,�L
2018/03/08,14:50,0.844,1.407,0.880,1.643,1.125,0.475,0.844,0.811,�k�k��,4.5,�L
2018/03/08,15:00,0.841,1.406,0.879,1.641,1.123,0.474,0.843,0.812,�k,4.2,�L
2018/03/08,15:10,0.842,1.407,0.876,1.638,1.123,0.476,0.841,0.811,�k,4.0,�L
2018/03/08,15:20,0.840,1.404,0.877,1.636,1.122,0.476,0.842,0.811,�k�k��,4.5,�L
2018/03/08,15:30,0.840,1.403,0.878,1.635,1.121,0.475,0.842,0.812,�k�k��,4.7,�L
2018/03/08,15:40,0.840,1.403,0.876,1.635,1.119,0.475,0.843,0.811,�k��,4.9,�L
2018/03/08,15:50,0.839,1.401,0.876,1.630,1.121,0.475,0.841,0.811,�k��,6.3,�L
2018/03/08,16:00,0.836,1.397,0.874,1.629,1.117,0.475,0.841,0.811,�k��,5.8,�L
2018/03/08,16:10,0.838,1.397,0.874,1.627,1.117,0.474,0.844,0.812,�k��,5.8,�L
2018/03/08,16:20,0.838,1.397,0.875,1.623,1.115,0.475,0.842,0.809,�k��,4.8,�L
2018/03/08,16:30,0.834,1.393,0.875,1.623,1.115,0.475,0.841,0.810,�k��,5.5,�L
2018/03/08,16:40,0.838,1.392,0.874,1.622,1.114,0.473,0.840,0.811,�k��,6.0,�L
2018/03/08,16:50,0.837,1.395,0.871,1.617,1.113,0.474,0.840,0.809,�k�k��,5.7,�L
2018/03/08,17:00,0.835,1.393,0.871,1.620,1.114,0.473,0.842,0.809,�k�k��,5.8,�L
2018/03/08,17:10,0.833,1.391,0.871,1.618,1.111,0.472,0.842,0.808,�k�k��,4.8,�L
2018/03/08,17:20,0.833,1.389,0.868,1.616,1.111,0.474,0.840,0.807,�k�k��,4.5,�L
2018/03/08,17:30,0.832,1.385,0.870,1.612,1.107,0.473,0.840,0.809,�k�k��,4.0,�L
2018/03/08,17:40,0.833,1.385,0.870,1.610,1.105,0.472,0.839,0.808,�k,4.5,�L
2018/03/08,17:50,0.829,1.381,0.868,1.608,1.106,0.472,0.839,0.807,�k�k��,4.5,�L
2018/03/08,18:00,0.829,1.378,0.866,1.608,1.104,0.474,0.839,0.806,�k,3.7,�L
2018/03/08,18:10,0.828,1.375,0.864,1.600,1.100,0.473,0.837,0.806,�k�k��,5.1,�L
2018/03/08,18:20,0.825,1.368,0.863,1.593,1.099,0.472,0.835,0.806,�k,5.5,�L
2018/03/08,18:30,0.824,1.369,0.862,1.589,1.094,0.472,0.836,0.804,�k�k��,5.4,�L
2018/03/08,18:40,0.825,1.368,0.861,1.593,1.096,0.472,0.835,0.804,�k�k��,6.2,�L
2018/03/08,18:50,0.825,1.364,0.862,1.592,1.095,0.472,0.835,0.804,�k�k��,6.3,�L
2018/03/08,19:00,0.825,1.365,0.861,1.589,1.094,0.471,0.834,0.803,�k��,6.0,�L
2018/03/08,19:10,0.823,1.357,0.857,1.586,1.090,0.472,0.832,0.802,�k��,6.0,�L
2018/03/08,19:20,0.822,1.355,0.858,1.584,1.085,0.470,0.830,0.801,�k��,5.4,�L
2018/03/08,19:30,0.821,1.354,0.857,1.580,1.083,0.470,0.831,0.801,�k��,4.9,�L
2018/03/08,19:40,0.821,1.355,0.857,1.581,1.083,0.471,0.829,0.802,�k��,3.2,�L
2018/03/08,19:50,0.821,1.352,0.855,1.583,1.078,0.469,0.829,0.799,�k��,3.1,�L
2018/03/08,20:00,0.818,1.350,0.853,1.575,1.076,0.470,0.829,0.800,�k��,3.7,�L
2018/03/08,20:10,0.820,1.349,0.853,1.579,1.075,0.470,0.828,0.799,�k��,2.3,�L
2018/03/08,20:20,0.817,1.350,0.853,1.580,1.076,0.470,0.830,0.799,-,CALM,�L
2018/03/08,20:30,0.819,1.352,0.854,1.580,1.076,0.470,0.829,0.799,�k�k��,1.1,�L
2018/03/08,20:40,0.816,1.347,0.853,1.579,1.074,0.469,0.825,0.797,�k��,1.4,�L
2018/03/08,20:50,0.815,1.343,0.850,1.573,1.069,0.468,0.827,0.797,�k��,1.5,�L
2018/03/08,21:00,0.816,1.342,0.852,1.572,1.069,0.468,0.826,0.799,�k�k��,1.2,�L
2018/03/08,21:10,0.815,1.343,0.852,1.574,1.070,0.469,0.825,0.797,�k�k��,1.5,�L
2018/03/08,21:20,0.817,1.346,0.852,1.575,1.070,0.471,0.824,0.797,�k�k��,0.9,�L
2018/03/08,21:30,0.818,1.348,0.855,1.579,1.071,0.472,0.825,0.801,���쓌,1.4,�L
2018/03/08,21:40,0.817,1.348,0.853,1.577,1.072,0.470,0.825,0.798,�쓌,0.6,�L
2018/03/08,21:50,0.818,1.346,0.854,1.577,1.071,0.472,0.827,0.798,�쓌,1.7,�L
2018/03/08,22:00,0.812,1.344,0.851,1.571,1.066,0.471,0.823,0.797,��쓌,1.8,�L
2018/03/08,22:10,0.813,1.346,0.853,1.579,1.070,0.473,0.827,0.799,���쓌,2.3,�L
2018/03/08,22:20,0.817,1.354,0.856,1.584,1.073,0.472,0.828,0.800,��쓌,2.3,�L
2018/03/08,22:30,0.823,1.358,0.857,1.584,1.077,0.472,0.828,0.800,��쓌,5.7,�L
2018/03/08,22:40,0.825,1.360,0.857,1.587,1.075,0.471,0.828,0.802,��쓌,9.2,�L
2018/03/08,22:50,0.825,1.364,0.860,1.591,1.078,0.471,0.830,0.801,��쓌,13.3,��
2018/03/08,23:00,0.826,1.359,0.861,1.589,1.076,0.472,0.832,0.802,��쓌,16.6,�L
2018/03/08,23:10,0.825,1.362,0.860,1.589,1.079,0.471,0.832,0.803,��,13.3,�L
2018/03/08,23:20,0.827,1.366,0.862,1.594,1.078,0.473,0.834,0.802,��쓌,14.9,��
2018/03/08,23:30,0.824,1.368,0.861,1.591,1.079,0.472,0.833,0.803,��,13.3,��
2018/03/08,23:40,0.826,1.366,0.862,1.594,1.080,0.472,0.835,0.804,��,12.2,��
2018/03/08,23:50,0.828,1.370,0.863,1.594,1.082,0.472,0.832,0.803,��쓌,13.5,�L
